Location: Seale
(32.2974°N, 85.1688°W)
Time: 10:53:07
(UTC+00:00)

Hubble Space Telescope - Pass Details

Date: 29 January 2021
Orbit: 535 x 539 km, 28.5° (Epoch: 08 March)

Event Time Altitude Azimuth Distance (km) Brightness Sun altitude
Rises 00:37:17 0° 258° (WSW) 2,672 6.0 -18.4°
Reaches altitude 10° 00:41:13 10° 221° (SW) 1,779 4.1 -19.3°
Maximum altitude 00:42:18 11° 206° (SSW) 1,723 3.8 -19.5°
Drops below altitude 10° 00:43:23 10° 190° (S) 1,778 3.6 -19.7°
Enters shadow 00:46:15 - 160° (SSE) 2,354 3.9 -20.3°
